[[{"header":{"parameterUnit":"m.s-1","parameterCategory":1,"la1":30.2992,"la2":30.254,"lo1":-89.0895,"lo2":-89.0443,"dy":0.0025,"dx":0.0025,"nx":19,"ny":19,"refTime":"2026-03-12T21:00:00:Z","depth":0,"parameterNumber":2,"parameterNumberName":"U-component_of_WINDS"},"data":[0,0,0,-0.4718,-0.4719,-0.4763,-0.4763,-0.4819,-0.482,0,0,0,0,0,0,0,0,0,0,0,-0.4706,-0.4707,-0.4718,-0.4719,-0.4763,-0.4763,-0.4819,-0.482,0,0,0,0,0,0,0,0,0,0,0,-0.4706,-0.4707,-0.4707,-0.472,-0.4763,-0.4763,-0.4819,-0.4786,0,0,0,0,0,0,0,0,0,0,-0.4744,-0.4734,-0.4707,-0.4707,-0.472,-0.4763,-0.4763,-0.4784,-0.4788,-0.48,0,-0.4811,0,-0.4816,-0.4823,-0.4824,0,0,0,-0.4719,-0.4731,-0.4741,-0.4707,-0.472,-0.4763,-0.4743,-0.4786,-0.479,-0.4805,-0.4812,-0.4814,-0.4817,-0.4824,-0.4824,-0.4895,-0.4896,0,0,-0.4716,-0.4715,-0.4738,-0.4744,-0.4738,-0.4742,-0.4744,-0.4789,-0.4796,-0.4812,-0.4815,-0.4818,-0.4824,-0.4825,-0.4895,-0.4895,0,0,0,-0.471,-0.4713,-0.4723,-0.4742,-0.4749,-0.4743,-0.4746,-0.4795,-0.4798,-0.4816,-0.4819,-0.4825,-0.4825,-0.4895,-0.4895,-0.4912,0,0,0,-0.4708,-0.4709,-0.4722,-0.4721,-0.4749,-0.4773,-0.4751,-0.4795,-0.48,-0.4818,-0.4825,-0.4826,-0.4894,-0.4895,-0.4911,-0.4921,0,0,0,-0.4703,-0.4709,-0.4715,-0.4721,-0.474,-0.4772,-0.4778,-0.4796,-0.4802,-0.4824,-0.4826,-0.4894,-0.4895,-0.4909,-0.4919,-0.4939,0,0,0,-0.4697,-0.473,-0.4716,-0.4753,-0.4739,-0.4782,-0.4777,-0.4809,-0.483,-0.4825,-0.4894,-0.4895,-0.4909,-0.4917,-0.4938,-0.4956,-0.4964,0,0,-0.4738,-0.4735,-0.4757,-0.4745,-0.479,-0.4775,-0.4822,-0.4843,-0.4846,-0.4879,-0.488,-0.4911,-0.4919,-0.4939,-0.5004,-0.501,0,0,0,-0.4769,-0.4785,-0.4797,-0.4817,-0.4833,-0.4847,-0.4861,-0.4868,-0.4895,-0.4863,-0.4923,-0.4928,-0.494,-0.4949,-0.4954,-0.4964,-0.4899,-0.4899,-0.4899,-0.4825,-0.4827,-0.4863,-0.487,-0.4889,-0.4902,-0.4917,-0.4929,-0.4926,-0.494,-0.495,-0.499,-0.5,-0.5004,-0.5015,-0.4959,-0.4959,-0.496,-0.496,-0.4885,-0.4908,-0.4901,-0.4935,-0.4936,-0.4963,-0.4976,-0.4973,-0.4998,-0.4983,-0.4993,-0.4977,-0.5011,-0.502,-0.4961,-0.4961,-0.496,-0.496,-0.496,-0.4923,-0.4935,-0.4942,-0.497,-0.499,-0.4995,-0.502,-0.502,-0.502,-0.5031,-0.5041,-0.5041,-0.5041,-0.5035,-0.5036,-0.5036,-0.5036,-0.5036,-0.5036,-0.496,-0.4968,-0.4989,-0.5007,-0.5019,-0.5035,-0.5046,-0.5058,-0.507,-0.5069,-0.5069,-0.5064,-0.5013,-0.5001,-0.5038,-0.5038,-0.5038,-0.5037,-0.5037,-0.5023,-0.5008,-0.504,-0.5052,-0.5073,-0.5093,-0.5092,-0.5115,-0.5124,-0.5136,-0.5128,-0.509,-0.5088,-0.5084,-0.5074,-0.5128,-0.5128,-0.5128,-0.5128,-0.5056,-0.5053,-0.5086,-0.5104,-0.5122,-0.5124,-0.516,-0.5168,-0.5174,-0.518,-0.5171,-0.5158,-0.5153,-0.5153,-0.5148,-0.5138,-0.5208,-0.5208,-0.5208,-0.5094,-0.5093,-0.5125,-0.513,-0.5145,-0.5159,-0.5192,-0.5213,-0.5217,-0.5211,-0.5184,-0.5181,-0.5158,-0.5151,-0.5147,-0.5138,-0.5121,0,0]},{"header":{"parameterUnit":"m.s-1","parameterCategory":1,"la1":30.2992,"la2":30.254,"lo1":-89.0895,"lo2":-89.0443,"dy":0.0025,"dx":0.0025,"nx":19,"ny":19,"refTime":"2026-03-12T21:00:00:Z","depth":0,"parameterNumber":3,"parameterNumberName":"V-component_of_WINDS"},"data":[0,0,0,-8.3142,-8.3144,-8.3247,-8.3247,-8.3387,-8.3388,0,0,0,0,0,0,0,0,0,0,0,-8.3118,-8.312,-8.3141,-8.3144,-8.3247,-8.3247,-8.3387,-8.3388,0,0,0,0,0,0,0,0,0,0,0,-8.3118,-8.3119,-8.3121,-8.3145,-8.3247,-8.3247,-8.3386,-8.3305,0,0,0,0,0,0,0,0,0,0,-8.3204,-8.3189,-8.3119,-8.3121,-8.3145,-8.3247,-8.3247,-8.3301,-8.331,-8.3344,0,-8.3379,0,-8.3386,-8.3398,-8.3399,0,0,0,-8.3138,-8.3182,-8.3204,-8.3121,-8.3146,-8.3247,-8.3199,-8.3306,-8.3316,-8.3357,-8.3381,-8.3386,-8.3389,-8.3399,-8.34,-8.3626,-8.3628,0,0,-8.3132,-8.314,-8.3197,-8.3211,-8.3199,-8.3196,-8.3202,-8.3312,-8.3338,-8.3381,-8.3389,-8.3391,-8.34,-8.3401,-8.3625,-8.3627,0,0,0,-8.312,-8.3136,-8.3155,-8.3206,-8.3224,-8.3199,-8.3206,-8.3333,-8.3339,-8.339,-8.3392,-8.3401,-8.3403,-8.3624,-8.3626,-8.3702,0,0,0,-8.3116,-8.3129,-8.3153,-8.3158,-8.3222,-8.328,-8.3225,-8.3331,-8.3343,-8.3392,-8.3401,-8.3404,-8.3622,-8.3625,-8.3697,-8.3736,0,0,0,-8.3109,-8.3128,-8.3146,-8.3158,-8.3203,-8.3278,-8.329,-8.3333,-8.3345,-8.3399,-8.3405,-8.3621,-8.3624,-8.3692,-8.3729,-8.38,0,0,0,-8.3102,-8.3209,-8.3147,-8.3267,-8.3203,-8.3326,-8.3289,-8.3379,-8.3435,-8.3402,-8.3622,-8.3625,-8.3691,-8.3724,-8.3795,-8.3862,-8.3891,0,0,-8.3241,-8.3226,-8.3296,-8.3244,-8.3381,-8.3309,-8.3456,-8.3497,-8.3493,-8.3582,-8.3587,-8.3699,-8.3728,-8.3799,-8.4047,-8.407,0,0,0,-8.3343,-8.3394,-8.3428,-8.3484,-8.3521,-8.3555,-8.3574,-8.359,-8.3665,-8.3541,-8.3743,-8.376,-8.3801,-8.3833,-8.3852,-8.3888,-8.364,-8.364,-8.364,-8.3549,-8.3542,-8.3659,-8.3666,-8.3719,-8.374,-8.3783,-8.3807,-8.378,-8.3829,-8.3855,-8.4007,-8.4044,-8.4059,-8.4096,-8.3889,-8.3889,-8.389,-8.389,-8.3752,-8.3824,-8.3792,-8.3894,-8.3885,-8.3969,-8.3994,-8.3973,-8.4049,-8.3986,-8.4021,-8.3953,-8.4084,-8.4116,-8.3895,-8.3894,-8.3894,-8.3893,-8.3893,-8.3887,-8.392,-8.3941,-8.4022,-8.4086,-8.4087,-8.4164,-8.4152,-8.4141,-8.4177,-8.4204,-8.4203,-8.4201,-8.4191,-8.4191,-8.4192,-8.4192,-8.4193,-8.4193,-8.4019,-8.4039,-8.4107,-8.4159,-8.4194,-8.4239,-8.4263,-8.4297,-8.4331,-8.4316,-8.4317,-8.4287,-8.4099,-8.4052,-8.4201,-8.42,-8.4199,-8.4198,-8.4197,-8.4228,-8.418,-8.4285,-8.4321,-8.4382,-8.4446,-8.4432,-8.4503,-8.4529,-8.4567,-8.453,-8.4393,-8.4375,-8.436,-8.4321,-8.4531,-8.4531,-8.4531,-8.4531,-8.4342,-8.4334,-8.444,-8.4499,-8.4556,-8.4555,-8.4672,-8.4693,-8.4705,-8.472,-8.4688,-8.4636,-8.4621,-8.4612,-8.4591,-8.4555,-8.482,-8.482,-8.482,-8.4471,-8.4469,-8.4572,-8.4588,-8.4635,-8.4676,-8.4786,-8.4854,-8.4857,-8.4832,-8.4733,-8.4721,-8.4636,-8.4609,-8.458,-8.4548,-8.4481,0,0]}]]